Weather History for KHWD - August, 2014

Change the Weather History Date:

Monday, August 11, 2014

  Actual Average Record
Temperature  
Mean Temperature 70 °F 66 °F  
Max Temperature 77 °F 75 °F 85 °F (2000)
Min Temperature 62 °F 58 °F 53 °F (2012)
Degree Days  
Heating Degree Days 0    
Month to date heating degree days 0  
Since 1 June heating degree days 117  
Since 1 July heating degree days 2  
Cooling Degree Days 5    
Month to date cooling degree days 39  
Year to date cooling degree days 223  
Since 1 June cooling degree days 173  
Growing Degree Days 18 (Base 50)    
Moisture  
Dew Point 58 °F    
Average Humidity 70    
Maximum Humidity 90    
Minimum Humidity 50    
Precipitation  
Precipitation 0.00 in - 0.07 in (1999)
Month to date precipitation T  
Year to date precipitation 4.69  
Since 1 July precipitation T  
Sea Level Pressure  
Sea Level Pressure 29.96 in    
Wind  
Wind Speed 7 mph (NW)    
Max Wind Speed 20 mph    
Max Gust Speed 23 mph    
Visibility 10 miles    
Events      
T = Trace of Precipitation, MM = Missing Value Source: NWS Daily Summary

Daily Weather History Graph

Daily Weather History Graph

Search for Another Location

Airport or City:

Trip Planner

Search our weather history database for the weather conditions in past years. The results will help you decide how hot, cold, wet, or windy it might be!

Date:

Astronomy

Aug. 11, 2014 Rise Set
Actual Time 6:20 AM PDT 8:05 PM PDT
Civil Twilight 5:52 AM PDT 8:33 PM PDT
Nautical Twilight 5:18 AM PDT 9:07 PM PDT
Astronomical Twilight 4:42 AM PDT 9:44 PM PDT
Moon 8:40 PM PDT (8/11) 7:30 AM PDT (8/11)
Length of Visible Light 14h 41m
Length of Day
13h 44m
Full, 98% of the Moon is Illuminated
Aug 11
Full
Aug 17
Last Quarter
Aug 25
New
Sep 2
First Quarter
Sep 8
Full

Hourly Weather History & Observations

Time (PDT) Temp. Dew Point Humidity Pressure Visibility Wind Dir Wind Speed Gust Speed Precip Events Conditions
12:54 AM 64.0 °F 59.0 °F 84% 29.98 in 10.0 mi North 3.5 mph - N/A   Clear
1:44 AM 62.6 °F 59.0 °F 88% 29.95 in 10.0 mi NNW 4.6 mph - N/A   Mostly Cloudy
1:54 AM 63.0 °F 59.0 °F 87% 29.98 in 10.0 mi NNW 4.6 mph - N/A   Mostly Cloudy
2:54 AM 63.0 °F 57.9 °F 84% 29.96 in 10.0 mi Calm Calm - N/A   Overcast
3:54 AM 64.0 °F 59.0 °F 84% 29.96 in 10.0 mi North 4.6 mph - N/A   Overcast
4:54 AM 64.0 °F 59.0 °F 84% 29.96 in 10.0 mi North 4.6 mph - N/A   Overcast
5:54 AM 64.0 °F 59.0 °F 84% 29.95 in 10.0 mi Calm Calm - N/A   Overcast
6:54 AM 64.9 °F 59.0 °F 81% 29.97 in 10.0 mi Calm Calm - N/A   Overcast
7:54 AM 64.9 °F 59.0 °F 81% 29.97 in 10.0 mi NNE 3.5 mph - N/A   Overcast
8:54 AM 66.0 °F 59.0 °F 78% 29.99 in 10.0 mi NNW 3.5 mph - N/A   Overcast
9:02 AM 66.2 °F 59.0 °F 78% 29.96 in 10.0 mi Calm Calm - N/A   Overcast
9:34 AM 68.0 °F 59.0 °F 73% 29.95 in 10.0 mi West 3.5 mph - N/A   Scattered Clouds
9:54 AM 69.1 °F 59.0 °F 70% 29.98 in 10.0 mi Calm Calm - N/A   Scattered Clouds
10:54 AM 70.0 °F 59.0 °F 68% 29.99 in 10.0 mi West 8.1 mph - N/A   Clear
11:54 AM 72.0 °F 57.9 °F 61% 29.98 in 10.0 mi WNW 8.1 mph - N/A   Clear
12:54 PM 75.9 °F 57.9 °F 54% 29.97 in 10.0 mi West 15.0 mph - N/A   Clear
1:54 PM 75.9 °F 57.0 °F 52% 29.96 in 10.0 mi WNW 16.1 mph - N/A   Clear
2:54 PM 75.9 °F 57.0 °F 52% 29.95 in 10.0 mi WNW 16.1 mph - N/A   Clear
3:54 PM 75.9 °F 57.0 °F 52% 29.93 in 10.0 mi WNW 15.0 mph - N/A   Clear
4:54 PM 75.0 °F 55.9 °F 51% 29.93 in 10.0 mi NW 13.8 mph - N/A   Clear
5:54 PM 73.9 °F 55.9 °F 53% 29.92 in 10.0 mi NW 16.1 mph - N/A   Clear
6:54 PM 71.1 °F 57.0 °F 61% 29.92 in 10.0 mi NNW 11.5 mph - N/A   Clear
7:47 PM 68.0 °F 59.0 °F 73% 29.90 in 10.0 mi NNW 9.2 mph 19.6 mph N/A   Partly Cloudy
7:54 PM 66.9 °F 59.0 °F 76% 29.94 in 10.0 mi NNW 8.1 mph - N/A   Clear
8:54 PM 64.0 °F 60.1 °F 87% 29.96 in 10.0 mi NNW 6.9 mph - N/A   Clear
9:54 PM 63.0 °F 59.0 °F 87% 29.97 in 10.0 mi NW 8.1 mph - N/A   Clear
10:54 PM 63.0 °F 59.0 °F 87% 29.97 in 10.0 mi NW 6.9 mph - N/A   Clear
11:54 PM 64.9 °F 59.0 °F 81% 29.96 in 10.0 mi WNW 4.6 mph - N/A   Clear